Year,Month,Day,Hour,Minute,Value (Times are PST for temperature in C)
2017,07,21,00,00,13.70
2017,07,21,00,02,13.70
2017,07,21,00,03,13.70
2017,07,21,00,04,13.70
2017,07,21,00,06,13.60
2017,07,21,00,07,13.60
2017,07,21,00,09,13.60
2017,07,21,00,10,13.60
2017,07,21,00,12,13.60
2017,07,21,00,13,13.60
2017,07,21,00,14,13.50
2017,07,21,00,16,13.50
2017,07,21,00,17,13.50
2017,07,21,00,18,13.50
2017,07,21,00,19,13.40
2017,07,21,00,21,13.40
2017,07,21,00,22,13.40
2017,07,21,00,23,13.40
2017,07,21,00,24,13.40
2017,07,21,00,26,13.40
2017,07,21,00,27,13.40
2017,07,21,00,28,13.40
2017,07,21,00,29,13.30
2017,07,21,00,31,13.30
2017,07,21,00,32,13.30
2017,07,21,00,33,13.30
2017,07,21,00,34,13.30
2017,07,21,00,36,13.30
2017,07,21,00,37,13.30
2017,07,21,00,38,13.30
2017,07,21,00,39,13.30
2017,07,21,00,41,13.30
2017,07,21,00,42,13.30
2017,07,21,00,43,13.30
2017,07,21,00,44,13.30
2017,07,21,00,46,13.20
2017,07,21,00,47,13.20
2017,07,21,00,48,13.20
2017,07,21,00,49,13.20
2017,07,21,00,51,13.20
2017,07,21,00,52,13.20
2017,07,21,00,53,13.20
2017,07,21,00,54,13.20
2017,07,21,00,56,13.20
2017,07,21,00,57,13.20
2017,07,21,00,58,13.20
2017,07,21,00,59,13.20
2017,07,21,01,01,13.20
2017,07,21,01,02,13.20
2017,07,21,01,03,13.20
2017,07,21,01,04,13.20
2017,07,21,01,06,13.20
2017,07,21,01,07,13.20
2017,07,21,01,08,13.20
2017,07,21,01,09,13.20
2017,07,21,01,11,13.20
2017,07,21,01,12,13.20
2017,07,21,01,13,13.20
2017,07,21,01,14,13.20
2017,07,21,01,16,13.20
2017,07,21,01,17,13.20
2017,07,21,01,18,13.20
2017,07,21,01,19,13.20
2017,07,21,01,21,13.20
2017,07,21,01,22,13.20
2017,07,21,01,23,13.20
2017,07,21,01,24,13.20
2017,07,21,01,25,13.20
2017,07,21,01,26,13.20
2017,07,21,01,27,13.20
2017,07,21,01,28,13.20
2017,07,21,01,29,13.20
2017,07,21,01,30,13.20
2017,07,21,01,31,13.20
2017,07,21,01,32,13.20
2017,07,21,01,33,13.20
2017,07,21,01,34,13.20
2017,07,21,01,36,13.20
2017,07,21,01,37,13.20
2017,07,21,01,38,13.20
2017,07,21,01,39,13.20
2017,07,21,01,40,13.20
2017,07,21,01,41,13.20
2017,07,21,01,42,13.20
2017,07,21,01,43,13.20
2017,07,21,01,44,13.10
2017,07,21,01,45,13.10
2017,07,21,01,46,13.10
2017,07,21,01,47,13.10
2017,07,21,01,48,13.10
2017,07,21,01,49,13.10
2017,07,21,01,50,13.10
2017,07,21,01,51,13.10
2017,07,21,01,52,13.10
2017,07,21,01,53,13.10
2017,07,21,01,54,13.10
2017,07,21,01,55,13.10
2017,07,21,01,56,13.10
2017,07,21,01,57,13.10
2017,07,21,01,58,13.10
2017,07,21,01,59,13.10
2017,07,21,02,00,13.00
2017,07,21,02,01,13.00
2017,07,21,02,02,13.00
2017,07,21,02,03,13.00
2017,07,21,02,04,13.00
2017,07,21,02,05,13.00
2017,07,21,02,06,13.00
2017,07,21,02,07,13.00
2017,07,21,02,08,13.00
2017,07,21,02,09,13.00
2017,07,21,02,10,13.00
2017,07,21,02,11,13.00
2017,07,21,02,12,12.90
2017,07,21,02,13,12.90
2017,07,21,02,14,12.90
2017,07,21,02,15,12.90
2017,07,21,02,16,12.90
2017,07,21,02,17,12.90
2017,07,21,02,18,12.90
2017,07,21,02,19,12.80
2017,07,21,02,20,12.80
2017,07,21,02,21,12.80
2017,07,21,02,22,12.80
2017,07,21,02,23,12.80
2017,07,21,02,24,12.80
2017,07,21,02,25,12.80
2017,07,21,02,26,12.80
2017,07,21,02,27,12.80
2017,07,21,02,28,12.80
2017,07,21,02,29,12.80
2017,07,21,02,30,12.80
2017,07,21,02,31,12.80
2017,07,21,02,32,12.80
2017,07,21,02,33,12.80
2017,07,21,02,34,12.80
2017,07,21,02,35,12.80
2017,07,21,02,37,12.80
2017,07,21,02,39,12.70
2017,07,21,02,41,12.70
2017,07,21,02,42,12.70
2017,07,21,02,43,12.70
2017,07,21,02,44,12.70
2017,07,21,02,46,12.70
2017,07,21,02,47,12.60
2017,07,21,02,48,12.60
2017,07,21,02,49,12.60
2017,07,21,02,51,12.70
2017,07,21,02,52,12.70
2017,07,21,02,53,12.70
2017,07,21,02,54,12.70
2017,07,21,02,56,12.70
2017,07,21,02,57,12.70
2017,07,21,02,58,12.70
2017,07,21,02,59,12.70
2017,07,21,03,01,12.70
2017,07,21,03,02,12.70
2017,07,21,03,03,12.80
2017,07,21,03,04,12.80
2017,07,21,03,06,12.80
2017,07,21,03,07,12.80
2017,07,21,03,08,12.80
2017,07,21,03,09,12.80
2017,07,21,03,11,12.80
2017,07,21,03,12,12.80
2017,07,21,03,13,12.80
2017,07,21,03,14,12.80
2017,07,21,03,16,12.80
2017,07,21,03,17,12.80
2017,07,21,03,18,12.90
2017,07,21,03,19,12.90
2017,07,21,03,21,12.90
2017,07,21,03,22,12.90
2017,07,21,03,23,12.90
2017,07,21,03,24,12.90
2017,07,21,03,26,12.90
2017,07,21,03,27,12.90
2017,07,21,03,28,12.90
2017,07,21,03,29,13.00
2017,07,21,03,31,13.00
2017,07,21,03,32,13.00
2017,07,21,03,33,13.00
2017,07,21,03,34,12.90
2017,07,21,03,36,12.90
2017,07,21,03,37,12.90
2017,07,21,03,38,12.90
2017,07,21,03,39,12.90
2017,07,21,03,41,12.90
2017,07,21,03,42,12.90
2017,07,21,03,43,12.90
2017,07,21,03,44,12.90
2017,07,21,03,46,12.90
2017,07,21,03,47,12.90
2017,07,21,03,48,12.90
2017,07,21,03,49,12.90
2017,07,21,03,51,12.90
2017,07,21,03,52,12.90
2017,07,21,03,53,12.90
2017,07,21,03,54,12.90
2017,07,21,03,56,12.90
2017,07,21,03,57,12.90
2017,07,21,03,58,12.90
2017,07,21,03,59,12.90
2017,07,21,04,00,12.90
2017,07,21,04,01,12.90
2017,07,21,04,02,12.80
2017,07,21,04,03,12.80
2017,07,21,04,04,12.80
2017,07,21,04,06,12.80
2017,07,21,04,07,12.80
2017,07,21,04,08,12.80
2017,07,21,04,09,12.80
2017,07,21,04,10,12.80
2017,07,21,04,11,12.80
2017,07,21,04,12,12.80
2017,07,21,04,13,12.80
2017,07,21,04,14,12.80
2017,07,21,04,15,12.80
2017,07,21,04,16,12.80
2017,07,21,04,17,12.80
2017,07,21,04,18,12.80
2017,07,21,04,19,12.80
2017,07,21,04,20,12.80
2017,07,21,04,21,12.80
2017,07,21,04,22,12.80
2017,07,21,04,23,12.80
2017,07,21,04,24,12.80
2017,07,21,04,25,12.80
2017,07,21,04,26,12.80
2017,07,21,04,27,12.80
2017,07,21,04,28,12.80
2017,07,21,04,29,12.80
2017,07,21,04,30,12.80
2017,07,21,04,31,12.80
2017,07,21,04,32,12.80
2017,07,21,04,33,12.80
2017,07,21,04,34,12.80
2017,07,21,04,35,12.70
2017,07,21,04,36,12.70
2017,07,21,04,37,12.70
2017,07,21,04,38,12.70
2017,07,21,04,39,12.70
2017,07,21,04,40,12.70
2017,07,21,04,41,12.70
2017,07,21,04,42,12.70
2017,07,21,04,43,12.60
2017,07,21,04,44,12.60
2017,07,21,04,45,12.60
2017,07,21,04,46,12.60
2017,07,21,04,47,12.60
2017,07,21,04,48,12.60
2017,07,21,04,49,12.60
2017,07,21,04,50,12.60
2017,07,21,04,51,12.60
2017,07,21,04,52,12.60
2017,07,21,04,53,12.50
2017,07,21,04,54,12.50
2017,07,21,04,55,12.50
2017,07,21,04,56,12.50
2017,07,21,04,57,12.50
2017,07,21,04,58,12.50
2017,07,21,04,59,12.50
2017,07,21,05,00,12.50
2017,07,21,05,01,12.50
2017,07,21,05,02,12.50
2017,07,21,05,03,12.50
2017,07,21,05,04,12.50
2017,07,21,05,06,12.50
2017,07,21,05,07,12.50
2017,07,21,05,08,12.40
2017,07,21,05,09,12.40
2017,07,21,05,11,12.40
2017,07,21,05,12,12.40
2017,07,21,05,13,12.40
2017,07,21,05,14,12.40
2017,07,21,05,16,12.40
2017,07,21,05,17,12.40
2017,07,21,05,18,12.30
2017,07,21,05,19,12.30
2017,07,21,05,21,12.30
2017,07,21,05,22,12.30
2017,07,21,05,23,12.30
2017,07,21,05,24,12.30
2017,07,21,05,26,12.30
2017,07,21,05,27,12.30
2017,07,21,05,28,12.30
2017,07,21,05,29,12.30
2017,07,21,05,31,12.30
2017,07,21,05,32,12.30
2017,07,21,05,33,12.30
2017,07,21,05,34,12.30
2017,07,21,05,36,12.30
2017,07,21,05,37,12.30
2017,07,21,05,38,12.20
2017,07,21,05,39,12.20
2017,07,21,05,41,12.20
2017,07,21,05,42,12.20
2017,07,21,05,43,12.20
2017,07,21,05,44,12.20
2017,07,21,05,46,12.20
2017,07,21,05,47,12.20
2017,07,21,05,48,12.20
2017,07,21,05,49,12.20
2017,07,21,05,51,12.20
2017,07,21,05,52,12.20
2017,07,21,05,53,12.20
2017,07,21,05,54,12.20
2017,07,21,05,56,12.20
2017,07,21,05,57,12.20
2017,07,21,05,58,12.20
2017,07,21,05,59,12.20
2017,07,21,06,01,12.20
2017,07,21,06,02,12.20
2017,07,21,06,03,12.20
2017,07,21,06,04,12.20
2017,07,21,06,06,12.30
2017,07,21,06,07,12.30
2017,07,21,06,08,12.30
2017,07,21,06,09,12.30
2017,07,21,06,11,12.30
2017,07,21,06,12,12.30
2017,07,21,06,13,12.30
2017,07,21,06,14,12.30
2017,07,21,06,16,12.40
2017,07,21,06,17,12.40
2017,07,21,06,18,12.40
2017,07,21,06,19,12.40
2017,07,21,06,21,12.40
2017,07,21,06,22,12.40
2017,07,21,06,23,12.40
2017,07,21,06,24,12.40
2017,07,21,06,26,12.40
2017,07,21,06,27,12.50
2017,07,21,06,28,12.50
2017,07,21,06,29,12.50
2017,07,21,06,31,12.50
2017,07,21,06,32,12.50
2017,07,21,06,33,12.50
2017,07,21,06,34,12.60
2017,07,21,06,36,12.60
2017,07,21,06,37,12.60
2017,07,21,06,38,12.60
2017,07,21,06,39,12.60
2017,07,21,06,40,12.60
2017,07,21,06,41,12.60
2017,07,21,06,42,12.60
2017,07,21,06,43,12.70
2017,07,21,06,44,12.70
2017,07,21,06,45,12.70
2017,07,21,06,46,12.70
2017,07,21,06,47,12.70
2017,07,21,06,48,12.70
2017,07,21,06,49,12.70
2017,07,21,06,50,12.70
2017,07,21,06,51,12.80
2017,07,21,06,52,12.80
2017,07,21,06,53,12.80
2017,07,21,06,54,12.80
2017,07,21,06,55,12.80
2017,07,21,06,56,12.80
2017,07,21,06,57,12.80
2017,07,21,06,58,12.80
2017,07,21,06,59,12.80
2017,07,21,07,00,12.90
2017,07,21,07,01,12.90
2017,07,21,07,02,12.90
2017,07,21,07,03,12.90
2017,07,21,07,04,12.90
2017,07,21,07,05,13.00
2017,07,21,07,06,13.00
2017,07,21,07,07,13.00
2017,07,21,07,08,13.00
2017,07,21,07,09,13.00
2017,07,21,07,10,13.00
2017,07,21,07,11,13.00
2017,07,21,07,12,13.00
2017,07,21,07,13,13.00
2017,07,21,07,14,13.00
2017,07,21,07,15,13.00
2017,07,21,07,16,13.00
2017,07,21,07,17,13.00
2017,07,21,07,18,13.00
2017,07,21,07,19,13.10
2017,07,21,07,20,13.10
2017,07,21,07,21,13.10
2017,07,21,07,22,13.10
2017,07,21,07,23,13.10
2017,07,21,07,24,13.10
2017,07,21,07,25,13.10
2017,07,21,07,26,13.10
2017,07,21,07,27,13.20
2017,07,21,07,28,13.20
2017,07,21,07,29,13.20
2017,07,21,07,30,13.30
2017,07,21,07,31,13.30
2017,07,21,07,32,13.30
2017,07,21,07,33,13.30
2017,07,21,07,34,13.30
2017,07,21,07,35,13.30
2017,07,21,07,36,13.40
2017,07,21,07,37,13.40
2017,07,21,07,38,13.50
2017,07,21,07,39,13.50
2017,07,21,07,40,13.50
2017,07,21,07,41,13.50
2017,07,21,07,42,13.60
2017,07,21,07,43,13.60
2017,07,21,07,44,13.60
2017,07,21,07,45,13.60
2017,07,21,07,46,13.60
2017,07,21,07,47,13.50
2017,07,21,07,48,13.50
2017,07,21,07,49,13.50
2017,07,21,07,51,13.50
2017,07,21,07,53,13.50
2017,07,21,07,54,13.50
2017,07,21,07,56,13.50
2017,07,21,07,57,13.50
2017,07,21,07,58,13.50
2017,07,21,07,59,13.50
2017,07,21,08,01,13.50
2017,07,21,08,02,13.50
2017,07,21,08,03,13.50
2017,07,21,08,04,13.50
2017,07,21,08,06,13.50
2017,07,21,08,07,13.40
2017,07,21,08,08,13.40
2017,07,21,08,09,13.40
2017,07,21,08,11,13.40
2017,07,21,08,12,13.40
2017,07,21,08,13,13.50
2017,07,21,08,14,13.60
2017,07,21,08,16,13.60
2017,07,21,08,17,13.70
2017,07,21,08,18,13.70
2017,07,21,08,19,13.70
2017,07,21,08,21,13.70
2017,07,21,08,22,13.80
2017,07,21,08,23,13.90
2017,07,21,08,24,14.00
2017,07,21,08,26,14.20
2017,07,21,08,27,14.20
2017,07,21,08,28,14.20
2017,07,21,08,29,14.30
2017,07,21,08,31,14.30
2017,07,21,08,32,14.40
2017,07,21,08,33,14.40
2017,07,21,08,34,14.40
2017,07,21,08,36,14.40
2017,07,21,08,37,14.40
2017,07,21,08,38,14.40
2017,07,21,08,39,14.40
2017,07,21,08,41,14.40
2017,07,21,08,42,14.40
2017,07,21,08,43,14.50
2017,07,21,08,44,14.50
2017,07,21,08,46,14.40
2017,07,21,08,47,14.30
2017,07,21,08,48,14.20
2017,07,21,08,49,14.20
2017,07,21,08,51,14.20
2017,07,21,08,52,14.20
2017,07,21,08,53,14.20
2017,07,21,08,54,14.20
2017,07,21,08,56,14.20
2017,07,21,08,57,14.10
2017,07,21,08,58,14.10
2017,07,21,08,59,14.10
2017,07,21,09,01,14.10
2017,07,21,09,02,14.10
2017,07,21,09,03,14.20
2017,07,21,09,04,14.20
2017,07,21,09,06,14.30
2017,07,21,09,07,14.40
2017,07,21,09,08,14.50
2017,07,21,09,09,14.50
2017,07,21,09,11,14.60
2017,07,21,09,12,14.60
2017,07,21,09,13,14.60
2017,07,21,09,14,14.60
2017,07,21,09,15,14.60
2017,07,21,09,16,14.60
2017,07,21,09,17,14.60
2017,07,21,09,18,14.70
2017,07,21,09,19,14.80
2017,07,21,09,20,14.80
2017,07,21,09,21,14.80
2017,07,21,09,22,14.80
2017,07,21,09,23,14.90
2017,07,21,09,24,15.00
2017,07,21,09,25,15.10
2017,07,21,09,26,15.20
2017,07,21,09,27,15.30
2017,07,21,09,28,15.30
2017,07,21,09,29,15.40
2017,07,21,09,30,15.50
2017,07,21,09,31,15.60
2017,07,21,09,32,15.60
2017,07,21,09,33,15.60
2017,07,21,09,34,15.50
2017,07,21,09,35,15.50
2017,07,21,09,36,15.50
2017,07,21,09,37,15.50
2017,07,21,09,38,15.50
2017,07,21,09,39,15.50
2017,07,21,09,40,15.50
2017,07,21,09,41,15.50
2017,07,21,09,42,15.50
2017,07,21,09,43,15.60
2017,07,21,09,44,15.60
2017,07,21,09,45,15.70
2017,07,21,09,46,15.80
2017,07,21,09,47,15.80
2017,07,21,09,48,15.80
2017,07,21,09,49,15.80
2017,07,21,09,50,15.80
2017,07,21,09,51,15.90
2017,07,21,09,52,15.90
2017,07,21,09,53,15.90
2017,07,21,09,54,15.90
2017,07,21,09,55,16.10
2017,07,21,09,56,16.10
2017,07,21,09,57,16.10
2017,07,21,09,58,16.10
2017,07,21,09,59,16.10
2017,07,21,10,00,16.10
2017,07,21,10,01,16.10
2017,07,21,10,02,16.10
2017,07,21,10,03,16.10
2017,07,21,10,04,16.10
2017,07,21,10,05,16.10
2017,07,21,10,06,16.10
2017,07,21,10,07,16.10
2017,07,21,10,08,16.10
2017,07,21,10,09,16.10
2017,07,21,10,10,16.10
2017,07,21,10,11,16.10
2017,07,21,10,12,16.10
2017,07,21,10,13,16.20
2017,07,21,10,14,16.30
2017,07,21,10,15,16.30
2017,07,21,10,16,16.40
2017,07,21,10,17,16.60
2017,07,21,10,18,16.70
2017,07,21,10,19,16.70
2017,07,21,10,20,16.80
2017,07,21,10,21,16.80
2017,07,21,10,22,16.90
2017,07,21,10,23,16.90
2017,07,21,10,24,17.00
2017,07,21,10,25,16.90
2017,07,21,10,26,16.90
2017,07,21,10,27,17.00
2017,07,21,10,28,17.00
2017,07,21,10,29,17.10
2017,07,21,10,31,17.20
2017,07,21,10,32,17.30
2017,07,21,10,33,17.30
2017,07,21,10,34,17.40
2017,07,21,10,36,17.50
2017,07,21,10,37,17.50
2017,07,21,10,38,17.50
2017,07,21,10,39,17.50
2017,07,21,10,41,17.40
2017,07,21,10,42,17.40
2017,07,21,10,43,17.30
2017,07,21,10,44,17.30
2017,07,21,10,46,17.20
2017,07,21,10,47,17.10
2017,07,21,10,48,17.00
2017,07,21,10,49,16.90
2017,07,21,10,51,16.80
2017,07,21,10,52,16.70
2017,07,21,10,53,16.70
2017,07,21,10,54,16.70
2017,07,21,10,56,16.70
2017,07,21,10,57,16.60
2017,07,21,10,58,16.60
2017,07,21,10,59,16.60
2017,07,21,11,01,16.40
2017,07,21,11,02,16.40
2017,07,21,11,03,16.30
2017,07,21,11,04,16.30
2017,07,21,11,06,16.10
2017,07,21,11,07,16.10
2017,07,21,11,08,16.10
2017,07,21,11,09,16.10
2017,07,21,11,11,16.10
2017,07,21,11,12,15.90
2017,07,21,11,13,15.90
2017,07,21,11,14,15.80
2017,07,21,11,16,15.80
2017,07,21,11,17,15.80
2017,07,21,11,18,15.80
2017,07,21,11,19,15.80
2017,07,21,11,21,15.70
2017,07,21,11,22,15.70
2017,07,21,11,23,15.70
2017,07,21,11,24,15.70
2017,07,21,11,26,15.70
2017,07,21,11,27,15.70
2017,07,21,11,28,15.60
2017,07,21,11,29,15.70
2017,07,21,11,31,15.60
2017,07,21,11,32,15.60
2017,07,21,11,33,15.70
2017,07,21,11,34,15.70
2017,07,21,11,36,15.60
2017,07,21,11,37,15.60
2017,07,21,11,38,15.60
2017,07,21,11,39,15.60
2017,07,21,11,41,15.60
2017,07,21,11,42,15.60
2017,07,21,11,43,15.60
2017,07,21,11,44,15.60
2017,07,21,11,46,15.60
2017,07,21,11,47,15.60
2017,07,21,11,48,15.60
2017,07,21,11,49,15.60
2017,07,21,11,51,15.60
2017,07,21,11,52,15.60
2017,07,21,11,53,15.60
2017,07,21,11,54,15.70
2017,07,21,11,55,15.70
2017,07,21,11,56,15.80
2017,07,21,11,57,15.80
2017,07,21,11,58,15.80
2017,07,21,11,59,15.80
2017,07,21,12,01,15.90
2017,07,21,12,02,15.90
2017,07,21,12,03,16.10
2017,07,21,12,04,16.10
2017,07,21,12,06,16.10
2017,07,21,12,07,16.20
2017,07,21,12,08,16.20
2017,07,21,12,09,16.20
2017,07,21,12,10,16.30
2017,07,21,12,11,16.30
2017,07,21,12,12,16.30
2017,07,21,12,13,16.30
2017,07,21,12,14,16.30
2017,07,21,12,15,16.30
2017,07,21,12,16,16.30
2017,07,21,12,17,16.30
2017,07,21,12,18,16.40
2017,07,21,12,19,16.40
2017,07,21,12,20,16.40
2017,07,21,12,21,16.40
2017,07,21,12,22,16.40
2017,07,21,12,23,16.40
2017,07,21,12,24,16.40
2017,07,21,12,25,16.40
2017,07,21,12,26,16.40
2017,07,21,12,27,16.30
2017,07,21,12,28,16.30
2017,07,21,12,29,16.20
2017,07,21,12,30,16.10
2017,07,21,12,31,16.10
2017,07,21,12,32,16.10
2017,07,21,12,33,15.90
2017,07,21,12,34,15.90
2017,07,21,12,35,15.90
2017,07,21,12,36,15.80
2017,07,21,12,37,15.80
2017,07,21,12,38,15.80
2017,07,21,12,39,15.80
2017,07,21,12,40,15.90
2017,07,21,12,41,15.90
2017,07,21,12,42,15.80
2017,07,21,12,43,15.80
2017,07,21,12,44,15.80
2017,07,21,12,45,15.80
2017,07,21,12,46,15.80
2017,07,21,12,47,15.90
2017,07,21,12,48,15.90
2017,07,21,12,49,16.10
2017,07,21,12,50,16.10
2017,07,21,12,51,16.10
2017,07,21,12,52,16.20
2017,07,21,12,53,16.20
2017,07,21,12,54,16.30
2017,07,21,12,55,16.30
2017,07,21,12,56,16.30
2017,07,21,12,57,16.40
2017,07,21,12,58,16.40
2017,07,21,12,59,16.40
2017,07,21,13,00,16.40
2017,07,21,13,01,16.40
2017,07,21,13,02,16.60
2017,07,21,13,03,16.60
2017,07,21,13,04,16.70
2017,07,21,13,05,16.70
2017,07,21,13,06,16.70
2017,07,21,13,07,16.70
2017,07,21,13,08,16.70
2017,07,21,13,09,16.70
2017,07,21,13,10,16.80
2017,07,21,13,11,16.80
2017,07,21,13,12,16.80
2017,07,21,13,13,16.80
2017,07,21,13,14,16.80
2017,07,21,13,15,16.80
2017,07,21,13,16,16.80
2017,07,21,13,17,16.90
2017,07,21,13,18,16.90
2017,07,21,13,19,16.90
2017,07,21,13,20,17.00
2017,07,21,13,21,17.00
2017,07,21,13,22,17.00
2017,07,21,13,24,17.10
2017,07,21,13,26,17.10
2017,07,21,13,27,17.10
2017,07,21,13,28,17.20
2017,07,21,13,29,17.20
2017,07,21,13,31,17.30
2017,07,21,13,32,17.30
2017,07,21,13,33,17.40
2017,07,21,13,34,17.40
2017,07,21,13,36,17.50
2017,07,21,13,37,17.60
2017,07,21,13,38,17.70
2017,07,21,13,39,17.80
2017,07,21,13,41,17.90
2017,07,21,13,42,17.90
2017,07,21,13,43,17.90
2017,07,21,13,44,17.90
2017,07,21,13,46,18.10
2017,07,21,13,47,18.10
2017,07,21,13,48,18.10
2017,07,21,13,49,18.20
2017,07,21,13,51,18.20
2017,07,21,13,52,18.20
2017,07,21,13,53,18.20
2017,07,21,13,54,18.20
2017,07,21,13,56,18.10
2017,07,21,13,57,18.10
2017,07,21,13,58,18.10
2017,07,21,13,59,18.10
2017,07,21,14,01,17.90
2017,07,21,14,02,17.90
2017,07,21,14,03,17.90
2017,07,21,14,04,17.80
2017,07,21,14,06,17.50
2017,07,21,14,07,17.50
2017,07,21,14,08,17.40
2017,07,21,14,09,17.30
2017,07,21,14,11,17.30
2017,07,21,14,12,17.30
2017,07,21,14,13,17.30
2017,07,21,14,14,17.30
2017,07,21,14,16,17.40
2017,07,21,14,17,17.40
2017,07,21,14,18,17.40
2017,07,21,14,19,17.50
2017,07,21,14,21,17.60
2017,07,21,14,22,17.60
2017,07,21,14,23,17.70
2017,07,21,14,24,17.70
2017,07,21,14,26,17.80
2017,07,21,14,27,17.90
2017,07,21,14,28,17.90
2017,07,21,14,29,17.90
2017,07,21,14,31,18.10
2017,07,21,14,32,18.20
2017,07,21,14,33,18.20
2017,07,21,14,34,18.20
2017,07,21,14,36,18.30
2017,07,21,14,37,18.30
2017,07,21,14,38,18.30
2017,07,21,14,39,18.30
2017,07,21,14,41,18.30
2017,07,21,14,42,18.30
2017,07,21,14,43,18.20
2017,07,21,14,44,18.20
2017,07,21,14,45,18.20
2017,07,21,14,46,18.10
2017,07,21,14,47,18.10
2017,07,21,14,48,17.90
2017,07,21,14,49,17.90
2017,07,21,14,51,17.90
2017,07,21,14,52,17.80
2017,07,21,14,53,17.80
2017,07,21,14,54,17.80
2017,07,21,14,55,17.80
2017,07,21,14,56,17.80
2017,07,21,14,57,17.80
2017,07,21,14,58,17.80
2017,07,21,14,59,17.80
2017,07,21,15,00,17.80
2017,07,21,15,01,17.80
2017,07,21,15,02,17.80
2017,07,21,15,03,17.80
2017,07,21,15,04,17.80
2017,07,21,15,06,17.80
2017,07,21,15,07,17.80
2017,07,21,15,08,17.80
2017,07,21,15,09,17.80
2017,07,21,15,10,17.80
2017,07,21,15,11,17.80
2017,07,21,15,12,17.80
2017,07,21,15,13,17.80
2017,07,21,15,14,17.80
2017,07,21,15,15,17.70
2017,07,21,15,16,17.70
2017,07,21,15,17,17.70
2017,07,21,15,18,17.70
2017,07,21,15,19,17.70
2017,07,21,15,20,17.70
2017,07,21,15,21,17.80
2017,07,21,15,22,17.80
2017,07,21,15,23,17.80
2017,07,21,15,24,17.80
2017,07,21,15,25,17.80
2017,07,21,15,26,17.80
2017,07,21,15,27,17.70
2017,07,21,15,28,17.70
2017,07,21,15,29,17.70
2017,07,21,15,30,17.70
2017,07,21,15,31,17.70
2017,07,21,15,32,17.70
2017,07,21,15,33,17.70
2017,07,21,15,34,17.70
2017,07,21,15,35,17.70
2017,07,21,15,36,17.70
2017,07,21,15,37,17.70
2017,07,21,15,38,17.80
2017,07,21,15,39,17.80
2017,07,21,15,40,17.90
2017,07,21,15,41,17.90
2017,07,21,15,42,17.90
2017,07,21,15,43,17.90
2017,07,21,15,44,17.90
2017,07,21,15,45,18.10
2017,07,21,15,46,18.10
2017,07,21,15,47,18.20
2017,07,21,15,48,18.20
2017,07,21,15,49,18.20
2017,07,21,15,50,18.30
2017,07,21,15,51,18.40
2017,07,21,15,52,18.40
2017,07,21,15,53,18.40
2017,07,21,15,54,18.50
2017,07,21,15,55,18.50
2017,07,21,15,56,18.50
2017,07,21,15,57,18.50
2017,07,21,15,58,18.50
2017,07,21,15,59,18.50
2017,07,21,16,00,18.50
2017,07,21,16,01,18.50
2017,07,21,16,02,18.50
2017,07,21,16,03,18.50
2017,07,21,16,04,18.50
2017,07,21,16,05,18.50
2017,07,21,16,07,18.50
2017,07,21,16,08,18.50
2017,07,21,16,09,18.40
2017,07,21,16,11,18.40
2017,07,21,16,12,18.40
2017,07,21,16,13,18.40
2017,07,21,16,14,18.40
2017,07,21,16,16,18.40
2017,07,21,16,17,18.40
2017,07,21,16,18,18.40
2017,07,21,16,19,18.40
2017,07,21,16,21,18.40
2017,07,21,16,22,18.40
2017,07,21,16,23,18.40
2017,07,21,16,24,18.40
2017,07,21,16,26,18.30
2017,07,21,16,27,18.30
2017,07,21,16,28,18.20
2017,07,21,16,29,18.20
2017,07,21,16,31,18.20
2017,07,21,16,32,18.10
2017,07,21,16,33,18.10
2017,07,21,16,34,17.90
2017,07,21,16,36,17.90
2017,07,21,16,37,17.90
2017,07,21,16,38,17.80
2017,07,21,16,39,17.80
2017,07,21,16,41,17.60
2017,07,21,16,42,17.50
2017,07,21,16,43,17.40
2017,07,21,16,44,17.30
2017,07,21,16,46,17.20
2017,07,21,16,47,17.10
2017,07,21,16,48,17.00
2017,07,21,16,49,17.00
2017,07,21,16,51,16.90
2017,07,21,16,52,16.90
2017,07,21,16,53,16.90
2017,07,21,16,54,17.00
2017,07,21,16,56,17.10
2017,07,21,16,57,17.10
2017,07,21,16,58,17.10
2017,07,21,16,59,17.20
2017,07,21,17,01,17.20
2017,07,21,17,02,17.20
2017,07,21,17,03,17.20
2017,07,21,17,04,17.20
2017,07,21,17,06,17.20
2017,07,21,17,07,17.20
2017,07,21,17,08,17.20
2017,07,21,17,09,17.20
2017,07,21,17,11,17.20
2017,07,21,17,12,17.20
2017,07,21,17,13,17.20
2017,07,21,17,14,17.20
2017,07,21,17,16,17.20
2017,07,21,17,17,17.20
2017,07,21,17,18,17.20
2017,07,21,17,19,17.20
2017,07,21,17,21,17.30
2017,07,21,17,22,17.30
2017,07,21,17,23,17.30
2017,07,21,17,24,17.30
2017,07,21,17,26,17.30
2017,07,21,17,27,17.40
2017,07,21,17,28,17.40
2017,07,21,17,29,17.40
2017,07,21,17,31,17.50
2017,07,21,17,32,17.60
2017,07,21,17,33,17.60
2017,07,21,17,34,17.70
2017,07,21,17,36,17.80
2017,07,21,17,37,17.80
2017,07,21,17,38,17.90
2017,07,21,17,39,17.90
2017,07,21,17,41,17.90
2017,07,21,17,42,17.90
2017,07,21,17,43,17.90
2017,07,21,17,44,17.90
2017,07,21,17,45,17.90
2017,07,21,17,46,17.90
2017,07,21,17,47,17.80
2017,07,21,17,48,17.80
2017,07,21,17,49,17.80
2017,07,21,17,50,17.80
2017,07,21,17,51,17.80
2017,07,21,17,52,17.80
2017,07,21,17,53,17.80
2017,07,21,17,54,17.80
2017,07,21,17,55,17.80
2017,07,21,17,56,17.80
2017,07,21,17,57,17.80
2017,07,21,17,58,17.80
2017,07,21,17,59,17.80
2017,07,21,18,00,17.90
2017,07,21,18,01,17.90
2017,07,21,18,02,17.90
2017,07,21,18,03,17.90
2017,07,21,18,04,17.90
2017,07,21,18,05,17.90
2017,07,21,18,06,17.90
2017,07,21,18,07,17.90
2017,07,21,18,08,17.90
2017,07,21,18,09,17.90
2017,07,21,18,10,17.90
2017,07,21,18,11,17.90
2017,07,21,18,12,17.90
2017,07,21,18,13,17.90
2017,07,21,18,14,17.90
2017,07,21,18,15,17.80
2017,07,21,18,16,17.70
2017,07,21,18,17,17.60
2017,07,21,18,18,17.60
2017,07,21,18,19,17.50
2017,07,21,18,20,17.50
2017,07,21,18,21,17.50
2017,07,21,18,22,17.50
2017,07,21,18,23,17.50
2017,07,21,18,24,17.50
2017,07,21,18,25,17.60
2017,07,21,18,26,17.60
2017,07,21,18,27,17.70
2017,07,21,18,28,17.70
2017,07,21,18,29,17.80
2017,07,21,18,30,17.80
2017,07,21,18,31,17.80
2017,07,21,18,32,17.80
2017,07,21,18,33,17.80
2017,07,21,18,34,17.80
2017,07,21,18,35,17.80
2017,07,21,18,36,17.70
2017,07,21,18,37,17.70
2017,07,21,18,38,17.70
2017,07,21,18,39,17.70
2017,07,21,18,40,17.70
2017,07,21,18,41,17.70
2017,07,21,18,42,17.60
2017,07,21,18,43,17.60
2017,07,21,18,44,17.50
2017,07,21,18,45,17.50
2017,07,21,18,46,17.50
2017,07,21,18,47,17.40
2017,07,21,18,48,17.40
2017,07,21,18,49,17.40
2017,07,21,18,50,17.30
2017,07,21,18,51,17.30
2017,07,21,18,52,17.30
2017,07,21,18,54,17.20
2017,07,21,18,56,17.20
2017,07,21,18,57,17.10
2017,07,21,18,58,17.10
2017,07,21,18,59,17.10
2017,07,21,19,00,17.00
2017,07,21,19,02,17.00
2017,07,21,19,03,16.90
2017,07,21,19,04,16.90
2017,07,21,19,06,16.70
2017,07,21,19,07,16.70
2017,07,21,19,08,16.70
2017,07,21,19,09,16.70
2017,07,21,19,11,16.60
2017,07,21,19,12,16.40
2017,07,21,19,13,16.40
2017,07,21,19,14,16.40
2017,07,21,19,16,16.30
2017,07,21,19,17,16.30
2017,07,21,19,18,16.20
2017,07,21,19,19,16.20
2017,07,21,19,21,16.20
2017,07,21,19,22,16.20
2017,07,21,19,23,16.10
2017,07,21,19,24,16.10
2017,07,21,19,26,16.10
2017,07,21,19,27,16.10
2017,07,21,19,28,16.10
2017,07,21,19,29,16.10
2017,07,21,19,31,15.90
2017,07,21,19,32,15.90
2017,07,21,19,33,15.90
2017,07,21,19,34,15.80
2017,07,21,19,36,15.80
2017,07,21,19,37,15.80
2017,07,21,19,38,15.80
2017,07,21,19,39,15.80
2017,07,21,19,41,15.70
2017,07,21,19,42,15.60
2017,07,21,19,43,15.60